Regional Weather Roundup
Issued by NWS

Home | Current Version | Previous Version | Graphics & Text | Print | Product List | Glossary On
Versions: 1 2 3 4 5 6 7 8 9 10 11 12 13 14 15 16 17 18 19 20 21 22 23 24 25 26 27 28 29 30 31 32 33 34 35 36 37 38 39 40 41 42 43 44 45 46 47 48 49 50
000
ASUS45 KCYS 300110
RWRWY

WYOMING REGIONAL WEATHER ROUNDUP
NATIONAL WEATHER SERVICE CHEYENNE WY
700 PM MDT TUE JUL 29 2014

NOTE:  "FAIR" INDICATES FEW OR NO CLOUDS BELOW 12,000 FEET
WITH NO SIGNIFICANT WEATHER AND/OR OBSTRUCTIONS TO VISIBILITY.

WYZ001-300200-
YELLOWSTONE NATIONAL PARK

CITY           SKY/WX    TMP DP  RH WIND       PRES   REMARKS
LK YELLOWSTONE   N/A     55  47  74 VRB7      30.45S
W YELLOWSTONE  NOT AVBL

$$
WYZ002>013-054>058-071-098>099-300200-
NORTHERN WYOMING

CITY           SKY/WX    TMP DP  RH WIND       PRES   REMARKS
JACKSON        SUNNY     63  57  82 NE7       30.32F
CODY           NOT AVBL
GREYBULL       CLOUDY    72  55  55 S8        30.22F
WORLAND        CLOUDY    67  59  75 W3        30.25F
SHERIDAN       CLOUDY    75  49  39 S7        30.21F
BUFFALO        CLOUDY    70  48  45 S6        30.29F
GILLETTE       PTSUNNY   68  55  63 SW3       30.25S
HULETT         FAIR      70  57  64 MISG      30.25
NEWCASTLE      FAIR      68  54  60 CALM      30.26

$$
WYZ014>020-022>026-101>103-300200-
CENTRAL WYOMING

CITY           SKY/WX    TMP DP  RH WIND       PRES   REMARKS
BIG PINEY      LGT RAIN  58  54  86 N10       30.36F
PINEDALE       LGT RAIN  59  55  88 CALM      30.37S
DUBOIS         CLOUDY    55  46  71 E8        30.40S
LANDER         LGT RAIN  58  57  97 SW6       30.32F FOG
RIVERTON       LGT RAIN  59  58  96 SW7       30.33F
CASPER         LGT RAIN  60  53  77 E10       30.32S
DOUGLAS        LGT RAIN  60  55  83 NE10      30.31S

$$
WYZ021-027>030-104>119-300200-
SOUTHERN WYOMING

CITY           SKY/WX    TMP DP  RH WIND       PRES   REMARKS
EVANSTON       LGT RAIN  62  55  77 NE6       30.31S
KEMMERER       CLOUDY    59  54  82 NE13      30.35S
FORT BRIDGER   CLOUDY    62  57  85 SE6       30.35S
ROCK SPRINGS   CLOUDY    58  54  86 NE17      30.34F
DIXON          CLOUDY    66  54  63 N12       30.29S
RAWLINS        CLOUDY    57  55  93 NE15      30.33F
SARATOGA       CLOUDY    59  55  88 SE5       30.33S
LARAMIE        HVY RAIN  55  54  96 CALM      30.35F FOG
CHEYENNE       LGT RAIN  59  57  93 SW9       30.29F FOG
TORRINGTON     LGT RAIN  68  58  70 E13       30.21R
PINE BLUFFS    RAIN      61  59  94 SW12G22   30.24R

$$



USA.gov is the U.S. government's official web portal to all federal, state and local government web resources and services.